DLH8FL ENBR-EDDF

Flight info

Callsign DLH8FL
Flight time N/A
Altitude 35000
Route TUXIL DCT ZOL DCT MITSI P619 NAVIK DCT ATTUS DCT RIMET T157 KERAX KERAX5D
Aircraft A21N/M-SDE3FGHIRWY/LB1

Departure

Time 2026-04-29 14:00
Airport Bergen Airport, Flesland (ENBR)

Arrival

Time N/A
Airport Frankfurt Main Airport (EDDF)
Time Latitude Longitude Altitude Speed Heading
2026-04-29 13:38 60.28892 5.22534 171 ft 0 kts 82°
2026-04-29 13:50 60.28891 5.22532 171 ft 1 kts 82°
2026-04-29 13:51 60.28889 5.22503 171 ft 2 kts 82°
2026-04-29 13:51 60.28888 5.22473 170 ft 2 kts 82°
2026-04-29 13:51 60.28885 5.22443 169 ft 2 kts 82°
2026-04-29 13:51 60.28889 5.22416 169 ft 2 kts 138°
2026-04-29 13:52 60.28902 5.22404 169 ft 0 kts 178°
2026-04-29 13:52 60.28904 5.22404 169 ft 0 kts 178°
2026-04-29 13:56 60.28899 5.22405 169 ft 2 kts 169°
2026-04-29 13:56 60.28867 5.22418 169 ft 6 kts 170°
2026-04-29 13:56 60.28808 5.22436 169 ft 10 kts 170°
2026-04-29 13:56 60.28725 5.22465 168 ft 13 kts 170°
2026-04-29 13:57 60.28628 5.22499 166 ft 15 kts 169°
2026-04-29 13:57 60.28516 5.22535 162 ft 15 kts 169°
2026-04-29 13:57 60.28426 5.22566 159 ft 10 kts 171°
2026-04-29 13:57 60.28340 5.22593 156 ft 13 kts 177°
2026-04-29 13:58 60.28274 5.22508 153 ft 11 kts 198°
2026-04-29 13:58 60.28187 5.22525 152 ft 13 kts 170°
2026-04-29 13:58 60.28089 5.22546 148 ft 12 kts 193°
2026-04-29 13:58 60.28046 5.22381 139 ft 16 kts 265°
2026-04-29 13:59 60.28052 5.22249 132 ft 8 kts 320°
2026-04-29 13:59 60.28093 5.22230 133 ft 5 kts 351°
2026-04-29 13:59 60.28353 5.22145 145 ft 73 kts 350°
2026-04-29 13:59 60.29070 5.21904 160 ft 135 kts 349°
2026-04-29 14:00 60.30149 5.21554 336 ft 170 kts 350°
2026-04-29 14:00 60.31273 5.21143 1139 ft 164 kts 349°
2026-04-29 14:00 60.32366 5.20740 1841 ft 163 kts 351°
2026-04-29 14:00 60.33497 5.20462 2412 ft 169 kts 353°
2026-04-29 14:01 60.34723 5.20161 2839 ft 186 kts 352°
2026-04-29 14:01 60.36033 5.19750 3360 ft 198 kts 350°
2026-04-29 14:01 60.37442 5.19228 3807 ft 216 kts 349°
2026-04-29 14:01 60.38974 5.18640 4219 ft 237 kts 349°
2026-04-29 14:02 60.40652 5.18060 4787 ft 252 kts 350°
2026-04-29 14:02 60.42388 5.17488 5534 ft 256 kts 350°
2026-04-29 14:02 60.44141 5.16922 6270 ft 261 kts 350°
2026-04-29 14:02 60.45922 5.16300 7052 ft 264 kts 344°
2026-04-29 14:03 60.47456 5.14420 7943 ft 263 kts 315°
2026-04-29 14:03 60.48442 5.11297 8695 ft 272 kts 291°
2026-04-29 14:03 60.48683 5.07478 9365 ft 283 kts 266°
2026-04-29 14:03 60.48259 5.03542 10125 ft 290 kts 250°
2026-04-29 14:04 60.47131 5.00133 10808 ft 300 kts 225°
2026-04-29 14:04 60.45341 4.97948 11419 ft 311 kts 199°
2026-04-29 14:04 60.43166 4.97519 11729 ft 328 kts 174°
2026-04-29 14:04 60.40856 4.98111 12034 ft 344 kts 173°
2026-04-29 14:05 60.38418 4.98728 12333 ft 361 kts 173°
2026-04-29 14:05 60.35868 4.99315 12605 ft 377 kts 174°
2026-04-29 14:05 60.33239 4.99879 12906 ft 391 kts 174°
2026-04-29 14:05 60.30510 5.00446 13448 ft 397 kts 174°
2026-04-29 14:06 60.27748 5.01089 14094 ft 400 kts 172°
2026-04-29 14:06 60.25008 5.02060 14720 ft 403 kts 168°
2026-04-29 14:06 60.22256 5.03153 15317 ft 407 kts 168°
2026-04-29 14:06 60.19481 5.04258 15887 ft 411 kts 168°
2026-04-29 14:07 60.16715 5.05620 16471 ft 415 kts 163°
2026-04-29 14:07 60.13975 5.07438 17000 ft 418 kts 158°
2026-04-29 14:07 60.11292 5.09661 17569 ft 421 kts 156°
2026-04-29 14:07 60.08608 5.11983 18083 ft 424 kts 155°
2026-04-29 14:08 60.05893 5.14335 18600 ft 428 kts 155°
2026-04-29 14:08 60.03159 5.16693 19114 ft 431 kts 155°
2026-04-29 14:08 60.00407 5.19055 19651 ft 434 kts 155°
2026-04-29 14:08 59.97665 5.21398 20148 ft 437 kts 155°
2026-04-29 14:09 59.94865 5.23787 20621 ft 440 kts 155°
2026-04-29 14:09 59.92057 5.26175 21074 ft 443 kts 155°
2026-04-29 14:09 59.89203 5.28597 21547 ft 446 kts 155°
2026-04-29 14:09 59.86364 5.31001 21987 ft 448 kts 155°
2026-04-29 14:10 59.83509 5.33396 22409 ft 451 kts 157°
2026-04-29 14:10 59.80534 5.35382 22828 ft 455 kts 163°
2026-04-29 14:10 59.77434 5.36705 23250 ft 458 kts 170°
2026-04-29 14:10 59.74271 5.37394 23649 ft 460 kts 174°
2026-04-29 14:11 59.71061 5.37896 24053 ft 463 kts 175°
2026-04-29 14:11 59.67852 5.38377 24434 ft 465 kts 175°
2026-04-29 14:11 59.64659 5.38907 24784 ft 468 kts 173°
2026-04-29 14:11 59.61435 5.39706 25142 ft 470 kts 172°
2026-04-29 14:12 59.58201 5.40529 25498 ft 472 kts 172°
2026-04-29 14:12 59.54916 5.41356 25845 ft 474 kts 172°
2026-04-29 14:12 59.51666 5.42174 26166 ft 477 kts 172°
2026-04-29 14:12 59.48362 5.43006 26492 ft 479 kts 172°
2026-04-29 14:13 59.45098 5.43827 26886 ft 479 kts 172°
2026-04-29 14:13 59.41798 5.44656 27340 ft 477 kts 171°
2026-04-29 14:13 59.38573 5.45650 27796 ft 475 kts 168°
2026-04-29 14:13 59.35319 5.46861 28221 ft 474 kts 168°
2026-04-29 14:14 59.32100 5.48034 28599 ft 473 kts 168°
2026-04-29 14:14 59.28900 5.49192 28984 ft 473 kts 168°
2026-04-29 14:14 59.25653 5.50365 29359 ft 472 kts 168°
2026-04-29 14:14 59.22454 5.51521 29731 ft 471 kts 168°
2026-04-29 14:15 59.19259 5.52674 30110 ft 470 kts 168°
2026-04-29 14:15 59.16034 5.53836 30485 ft 469 kts 167°
2026-04-29 14:15 59.12851 5.54984 30846 ft 468 kts 168°
2026-04-29 14:15 59.09666 5.56131 31207 ft 467 kts 168°
2026-04-29 14:16 59.06495 5.57271 31564 ft 466 kts 168°
2026-04-29 14:16 59.03344 5.58401 31938 ft 464 kts 168°
2026-04-29 14:16 59.00165 5.59535 32288 ft 463 kts 168°
2026-04-29 14:16 58.97006 5.60660 32602 ft 462 kts 168°
2026-04-29 14:17 58.93858 5.61780 32905 ft 461 kts 168°
2026-04-29 14:17 58.90722 5.62895 33202 ft 460 kts 168°
2026-04-29 14:17 58.87606 5.64032 33497 ft 459 kts 166°
2026-04-29 14:17 58.84474 5.65432 33770 ft 458 kts 166°
2026-04-29 14:18 58.81400 5.66845 33994 ft 458 kts 166°
2026-04-29 14:18 58.78315 5.68250 34162 ft 459 kts 166°
2026-04-29 14:18 58.75230 5.69650 34333 ft 460 kts 166°
2026-04-29 14:18 58.72128 5.71059 34512 ft 461 kts 166°
2026-04-29 14:19 58.68993 5.72481 34702 ft 461 kts 166°
2026-04-29 14:19 58.65889 5.73888 34882 ft 461 kts 166°
2026-04-29 14:19 58.62779 5.75294 35052 ft 462 kts 166°
2026-04-29 14:19 58.59645 5.76709 35205 ft 463 kts 166°
2026-04-29 14:20 58.56523 5.78117 35345 ft 464 kts 166°
2026-04-29 14:20 58.53400 5.79523 35451 ft 465 kts 166°
2026-04-29 14:20 58.47136 5.82336 35455 ft 465 kts 166°
2026-04-29 14:21 58.40854 5.85145 35453 ft 466 kts 166°
2026-04-29 14:21 58.34590 5.87938 35454 ft 466 kts 166°
2026-04-29 14:22 58.28319 5.90723 35454 ft 466 kts 165°
2026-04-29 14:22 58.22005 5.93517 35455 ft 466 kts 165°
2026-04-29 14:23 58.15722 5.96287 35454 ft 466 kts 165°
2026-04-29 14:23 58.09429 5.99051 35453 ft 466 kts 165°
2026-04-29 14:24 58.03136 6.01807 35451 ft 466 kts 165°
2026-04-29 14:24 57.96837 6.04554 35451 ft 466 kts 165°
2026-04-29 14:25 57.90543 6.07289 35451 ft 466 kts 165°
2026-04-29 14:25 57.84246 6.10016 35450 ft 467 kts 165°
2026-04-29 14:26 57.77910 6.12749 35449 ft 468 kts 165°
2026-04-29 14:26 57.71607 6.15459 35449 ft 468 kts 165°
2026-04-29 14:27 57.65280 6.18171 35450 ft 468 kts 165°
2026-04-29 14:28 57.55784 6.22219 35448 ft 469 kts 165°
2026-04-29 14:28 57.49462 6.24903 35448 ft 469 kts 165°
2026-04-29 14:29 57.43137 6.27581 35450 ft 469 kts 164°
2026-04-29 14:29 57.36771 6.30264 35449 ft 469 kts 164°
2026-04-29 14:30 57.30424 6.32933 35450 ft 470 kts 164°
2026-04-29 14:30 57.24115 6.35574 35450 ft 470 kts 164°
2026-04-29 14:31 57.17738 6.38237 35450 ft 470 kts 164°
2026-04-29 14:31 57.11379 6.40881 35450 ft 470 kts 164°
2026-04-29 14:32 57.05074 6.43877 35450 ft 468 kts 158°
2026-04-29 14:32 56.99115 6.48360 35451 ft 465 kts 149°
2026-04-29 14:33 56.93606 6.54352 35453 ft 460 kts 140°
2026-04-29 14:33 56.88546 6.61323 35452 ft 458 kts 138°
2026-04-29 14:34 56.83464 6.68331 35453 ft 459 kts 139°
2026-04-29 14:34 56.78371 6.75286 35454 ft 460 kts 139°
2026-04-29 14:35 56.73270 6.82223 35457 ft 459 kts 139°
2026-04-29 14:35 56.68163 6.89149 35458 ft 459 kts 139°